[[{"header":{"parameterUnit":"m.s-1","parameterCategory":1,"la1":30.2991,"la2":30.254,"lo1":-89.0895,"lo2":-89.0444,"dy":0.0017,"dx":0.0017,"nx":28,"ny":28,"refTime":"2025-03-24T03:00:00:Z","depth":0,"parameterNumber":2,"parameterNumberName":"U-component_of_WINDS"},"data":[0,0,0,0,0,0,0,0,0,0,0,0,0,0,0,0,0,0,0,0,0,0,0,0,0,0,0,0,0,0,0,0,0,0,0,0,0,0,0,0,0,0,0,0,0,0,0,0,0,0,0,0,0,0,0,0,0,0,-0.491,-0.491,0,-0.4898,-0.4898,-0.4898,-0.4858,-0.4857,-0.4856,-0.4855,-0.4845,-0.4845,-0.4846,0,0,0,0,0,0,0,0,0,0,0,0,0,-0.4902,-0.4902,-0.491,-0.491,-0.491,-0.4898,-0.4898,-0.4898,-0.4858,-0.4857,-0.4856,-0.4855,-0.4844,-0.4845,-0.4846,0,0,0,0,0,0,0,0,0,0,0,0,0,-0.4899,-0.4902,-0.491,-0.4889,-0.4886,-0.4898,-0.4898,-0.4898,-0.4858,-0.4857,-0.4855,-0.4854,-0.4844,-0.4845,-0.4846,-0.4878,0,0,-0.4849,-0.4849,0,0,0,0,0,0,0,0,-0.49,-0.49,-0.4892,-0.489,-0.4888,-0.4878,-0.4891,-0.4891,-0.4858,-0.4869,-0.4855,-0.4853,-0.4857,-0.4857,-0.4857,-0.4878,-0.4877,-0.4849,-0.4849,-0.4849,-0.485,0,0,0,0,0,0,0,-0.49,-0.49,-0.4905,-0.4892,-0.4889,-0.488,-0.4878,-0.4891,-0.4871,-0.4868,-0.4865,-0.4864,-0.4856,-0.4857,-0.4857,-0.4877,-0.4849,-0.4849,-0.485,-0.485,-0.4925,-0.4926,0,0,0,0,0,0,-0.4903,-0.49,-0.4906,-0.4905,-0.489,-0.4882,-0.4879,-0.4882,-0.487,-0.4867,-0.4865,-0.4862,-0.4856,-0.4856,-0.4856,-0.4894,-0.4849,-0.485,-0.4851,-0.4924,-0.4925,-0.4927,0,0,0,0,0,0,-0.4903,-0.4904,-0.4906,-0.4902,-0.4902,-0.4883,-0.4887,-0.4883,-0.4884,-0.4868,-0.4865,-0.487,-0.4855,-0.4855,-0.4873,-0.4894,-0.4851,-0.4851,-0.4922,-0.4924,-0.4926,-0.497,0,0,0,0,0,0,-0.4903,-0.4904,-0.4915,-0.4902,-0.4902,-0.4923,-0.4888,-0.4884,-0.4885,-0.4881,-0.4872,-0.4869,-0.4854,-0.4872,-0.4874,-0.4894,-0.4852,-0.492,-0.4923,-0.4925,-0.4967,-0.4974,-0.498,0,0,0,0,0,-0.4902,-0.4928,-0.4916,-0.4917,-0.4916,-0.4924,-0.4924,-0.4905,-0.4887,-0.4899,-0.4889,-0.4869,-0.4891,-0.4874,-0.4876,-0.4897,-0.4919,-0.4922,-0.4925,-0.4964,-0.4973,-0.498,0,0,0,0,0,0,-0.4944,-0.4926,-0.4912,-0.4935,-0.4931,-0.4917,-0.4931,-0.4914,-0.4916,-0.4913,-0.489,-0.4889,-0.491,-0.4905,-0.4887,-0.4928,-0.4902,-0.4905,-0.4931,-0.4938,-0.4945,-0.4946,-0.4853,0,0,0,0,0,-0.4956,-0.4963,-0.4947,-0.4969,-0.4968,-0.495,-0.4953,-0.4939,-0.4935,-0.4933,-0.4925,-0.4922,-0.4928,-0.4933,-0.4938,-0.4966,-0.4964,-0.4981,-0.4987,-0.4993,-0.4997,-0.5013,-0.502,-0.4938,-0.4938,-0.4938,0,0,-0.4981,-0.4972,-0.4978,-0.4977,-0.4973,-0.4982,-0.4949,-0.496,-0.4967,-0.4935,-0.4952,-0.4945,-0.4941,-0.4965,-0.4975,-0.4961,-0.5019,-0.4997,-0.5001,-0.5002,-0.5017,-0.5025,-0.5032,-0.494,-0.494,-0.4939,0,0,-0.503,-0.5024,-0.5041,-0.5038,-0.5031,-0.5019,-0.5024,-0.5013,-0.5007,-0.5023,-0.5,-0.5008,-0.5019,-0.5018,-0.5018,-0.5068,-0.5051,-0.507,-0.5104,-0.512,-0.5126,-0.5132,-0.5151,-0.5158,-0.5074,-0.5074,-0.5074,0,-0.5062,-0.5074,-0.5053,-0.5065,-0.5066,-0.5037,-0.5056,-0.5053,-0.5049,-0.5051,-0.5036,-0.505,-0.5045,-0.5068,-0.5081,-0.5082,-0.5087,-0.5072,-0.5127,-0.5132,-0.5137,-0.5155,-0.5163,-0.5077,-0.5077,-0.5076,-0.5076,0,-0.5114,-0.5123,-0.5138,-0.5134,-0.5137,-0.5152,-0.5135,-0.514,-0.5126,-0.5116,-0.5134,-0.5127,-0.513,-0.5135,-0.5121,-0.5157,-0.5149,-0.5131,-0.5104,-0.5148,-0.5165,-0.5171,-0.508,-0.508,-0.5079,-0.5078,0,0,-0.519,-0.5174,-0.518,-0.5179,-0.517,-0.5177,-0.5192,-0.5195,-0.52,-0.5199,-0.5212,-0.5222,-0.5205,-0.5206,-0.5192,-0.5206,-0.5248,-0.5186,-0.5185,-0.5199,-0.5289,-0.5303,-0.5312,-0.5236,-0.5237,-0.5238,-0.5289,0,-0.5238,-0.5261,-0.5243,-0.527,-0.5279,-0.5252,-0.5265,-0.5262,-0.5253,-0.5261,-0.5251,-0.5259,-0.5236,-0.5236,-0.5249,-0.524,-0.5266,-0.5236,-0.5249,-0.525,-0.5252,-0.532,-0.5335,-0.5384,-0.5296,-0.5297,-0.5297,0,-0.5297,-0.5298,-0.5326,-0.5316,-0.5319,-0.5331,-0.5333,-0.5339,-0.5336,-0.5329,-0.533,-0.5313,-0.5328,-0.5301,-0.5323,-0.5303,-0.5307,-0.5304,-0.5305,-0.5307,-0.5277,-0.5324,-0.5399,-0.5407,-0.5307,-0.5306,-0.5306,0,-0.5351,-0.5359,-0.5377,-0.5377,-0.5365,-0.5375,-0.5371,-0.5365,-0.5369,-0.5371,-0.5373,-0.5377,-0.5379,-0.5383,-0.5368,-0.535,-0.5392,-0.5364,-0.5388,-0.5389,-0.5399,-0.5399,-0.5477,-0.54,-0.54,-0.54,-0.54,0,-0.5407,-0.5426,-0.5401,-0.5413,-0.5433,-0.5413,-0.5434,-0.5427,-0.5423,-0.5433,-0.541,-0.5421,-0.54,-0.5409,-0.5397,-0.5417,-0.5418,-0.5414,-0.5411,-0.5417,-0.5418,-0.542,-0.5417,-0.5402,-0.5401,-0.5401,-0.5401,0,-0.5471,-0.5456,-0.5474,-0.5462,-0.5459,-0.5475,-0.5465,-0.5476,-0.5466,-0.548,-0.5482,-0.5467,-0.5476,-0.5461,-0.5469,-0.5461,-0.549,-0.5481,-0.5491,-0.5489,-0.5515,-0.5513,-0.5598,-0.5608,-0.5524,-0.5525,-0.5525,0,-0.5509,-0.5523,-0.5512,-0.5517,-0.5514,-0.5522,-0.5526,-0.5506,-0.5511,-0.5508,-0.552,-0.5527,-0.5531,-0.5548,-0.5538,-0.5544,-0.5536,-0.5566,-0.5537,-0.5543,-0.5538,-0.5538,-0.554,-0.5572,-0.5573,-0.5574,-0.5574,0,-0.5578,-0.5569,-0.5574,-0.5577,-0.5581,-0.5583,-0.5583,-0.5588,-0.5568,-0.5574,-0.5583,-0.5587,-0.5595,-0.5603,-0.5607,-0.5604,-0.5587,-0.5583,-0.559,-0.5596,-0.5602,-0.5601,-0.5508,-0.5582,-0.5581,-0.558,-0.558,-0.558,-0.563,-0.5642,-0.5636,-0.5643,-0.5641,-0.5641,-0.5651,-0.5642,-0.5649,-0.5654,-0.5642,-0.5654,-0.5651,-0.5654,-0.5653,-0.5664,-0.5651,-0.5659,-0.5662,-0.5665,-0.5669,-0.5599,-0.5664,-0.5664,-0.5664,-0.5663,-0.5663,0,-0.5699,-0.5694,-0.57,-0.5701,-0.5707,-0.5689,-0.5688,-0.5694,-0.5705,-0.5703,-0.5708,-0.572,-0.5727,-0.5719,-0.5725,-0.5735,-0.5728,-0.5738,-0.5737,-0.5737,-0.568,-0.5674,-0.5744,-0.5744,-0.5744,-0.5744,-0.5744,-0.5744,-0.5735,-0.5754,-0.5745,-0.5763,-0.5758,-0.577,-0.5771,-0.5772,-0.5771,-0.5784,-0.579,-0.5784,-0.578,-0.5786,-0.5793,-0.579,-0.5795,-0.5808,-0.5803,-0.5749,-0.5741,-0.5734,-0.5729,-0.5809,-0.5809,-0.586,-0.586,-0.5861]},{"header":{"parameterUnit":"m.s-1","parameterCategory":1,"la1":30.2991,"la2":30.254,"lo1":-89.0895,"lo2":-89.0444,"dy":0.0017,"dx":0.0017,"nx":28,"ny":28,"refTime":"2025-03-24T03:00:00:Z","depth":0,"parameterNumber":3,"parameterNumberName":"V-component_of_WINDS"},"data":[0,0,0,0,0,0,0,0,0,0,0,0,0,0,0,0,0,0,0,0,0,0,0,0,0,0,0,0,0,0,0,0,0,0,0,0,0,0,0,0,0,0,0,0,0,0,0,0,0,0,0,0,0,0,0,0,0,0,1.8859,1.8859,0,1.8831,1.8831,1.8831,1.8783,1.8782,1.8781,1.878,1.875,1.8751,1.8751,0,0,0,0,0,0,0,0,0,0,0,0,0,1.8872,1.8872,1.8859,1.8859,1.8859,1.8831,1.8831,1.8831,1.8783,1.8782,1.8781,1.878,1.875,1.8751,1.8751,0,0,0,0,0,0,0,0,0,0,0,0,0,1.8857,1.8872,1.8859,1.8831,1.8829,1.8831,1.8831,1.883,1.8783,1.8782,1.878,1.8779,1.875,1.8751,1.8751,1.8778,0,0,1.8751,1.8751,0,0,0,0,0,0,0,0,1.8858,1.8857,1.8836,1.8833,1.883,1.8809,1.8824,1.8813,1.8783,1.88,1.878,1.8778,1.8771,1.8769,1.8767,1.8777,1.8775,1.8751,1.8751,1.8751,1.8751,0,0,0,0,0,0,0,1.8859,1.8858,1.8848,1.8836,1.8832,1.882,1.8817,1.8822,1.8794,1.8799,1.8795,1.8793,1.8769,1.8767,1.8766,1.8775,1.8751,1.8751,1.8751,1.8751,1.8806,1.8808,0,0,0,0,0,0,1.8864,1.8859,1.8849,1.8847,1.8841,1.8821,1.8817,1.8817,1.8793,1.8788,1.8794,1.8791,1.8768,1.8766,1.8765,1.8795,1.8751,1.8751,1.8751,1.8805,1.8806,1.8808,0,0,0,0,0,0,1.8865,1.8864,1.885,1.8852,1.885,1.8823,1.8823,1.8817,1.8815,1.879,1.8784,1.8797,1.8766,1.8765,1.8775,1.8793,1.8751,1.8751,1.8803,1.8805,1.8807,1.8856,0,0,0,0,0,0,1.8865,1.8864,1.8874,1.8853,1.885,1.8861,1.8824,1.8818,1.8815,1.8811,1.8791,1.8786,1.8765,1.8775,1.8775,1.8793,1.8751,1.8801,1.8804,1.8807,1.8852,1.8859,1.8865,0,0,0,0,0,1.8866,1.8889,1.8875,1.8874,1.8861,1.8862,1.886,1.8836,1.8817,1.8827,1.8811,1.8787,1.8792,1.8777,1.8776,1.8794,1.88,1.8803,1.8806,1.885,1.8858,1.8865,0,0,0,0,0,0,1.8912,1.8885,1.887,1.8886,1.8877,1.8854,1.8865,1.8846,1.8841,1.8837,1.8807,1.8803,1.8817,1.8807,1.8791,1.882,1.8792,1.8796,1.8825,1.8833,1.8839,1.8841,1.8751,0,0,0,0,0,1.8924,1.8927,1.8904,1.8921,1.8917,1.8892,1.8892,1.8874,1.8863,1.8859,1.8843,1.8833,1.8833,1.8833,1.8831,1.8852,1.8846,1.8864,1.887,1.8876,1.8878,1.8889,1.8896,1.8819,1.8819,1.8818,0,0,1.8949,1.8935,1.8938,1.893,1.892,1.8924,1.8889,1.8894,1.8897,1.8859,1.8868,1.8857,1.8844,1.886,1.8866,1.8852,1.8899,1.888,1.8884,1.8884,1.8893,1.89,1.8907,1.8821,1.882,1.882,0,0,1.8996,1.8986,1.8999,1.8991,1.8978,1.8961,1.8965,1.8946,1.8937,1.8946,1.8918,1.8921,1.892,1.8912,1.8908,1.8955,1.8932,1.8955,1.8988,1.8998,1.9004,1.901,1.9026,1.9032,1.8958,1.8958,1.8958,0,1.9028,1.9033,1.9008,1.9015,1.9012,1.898,1.8993,1.8986,1.8973,1.8972,1.8956,1.8955,1.8944,1.8958,1.897,1.8968,1.8971,1.8956,1.9006,1.9011,1.9015,1.903,1.9036,1.8961,1.8961,1.896,1.896,0,1.9073,1.9077,1.9089,1.9078,1.9076,1.9087,1.9063,1.9065,1.9048,1.9034,1.9044,1.903,1.9025,1.9027,1.9011,1.9039,1.9031,1.9011,1.8983,1.9026,1.9039,1.9045,1.8965,1.8964,1.8963,1.8962,0,0,1.9146,1.9122,1.9127,1.9121,1.9106,1.9108,1.9118,1.9113,1.9115,1.9108,1.9115,1.9116,1.9098,1.9094,1.9076,1.9086,1.9123,1.9065,1.9064,1.9075,1.9154,1.9167,1.9174,1.911,1.9111,1.9111,1.9154,0,1.9188,1.9202,1.9181,1.92,1.9203,1.9174,1.9182,1.9173,1.9161,1.9162,1.9148,1.915,1.9126,1.9123,1.9132,1.9117,1.9138,1.9114,1.9115,1.9115,1.9117,1.9182,1.9196,1.9237,1.916,1.9161,1.9161,0,1.9239,1.9235,1.9254,1.9238,1.9239,1.9246,1.9241,1.9243,1.9233,1.9223,1.922,1.9199,1.9208,1.9182,1.9193,1.9177,1.9176,1.917,1.9171,1.9168,1.9139,1.918,1.9249,1.9255,1.9169,1.9169,1.9168,0,1.9288,1.9288,1.9299,1.9296,1.9278,1.9284,1.9277,1.9266,1.9265,1.9261,1.926,1.9257,1.9255,1.9253,1.9233,1.9216,1.9246,1.9219,1.9238,1.9239,1.9244,1.9243,1.9313,1.9247,1.9247,1.9246,1.9246,0,1.9337,1.9349,1.9322,1.9328,1.9342,1.9319,1.9333,1.9323,1.9314,1.9319,1.9294,1.9299,1.9272,1.9275,1.9259,1.927,1.927,1.9262,1.9258,1.9263,1.9264,1.9261,1.9257,1.9248,1.9248,1.9247,1.9247,0,1.9393,1.9375,1.9386,1.9369,1.9365,1.9376,1.9361,1.9367,1.9354,1.936,1.936,1.934,1.9341,1.9322,1.9319,1.9309,1.9327,1.9318,1.933,1.9327,1.9347,1.9345,1.9415,1.9423,1.9353,1.9354,1.9355,0,1.9424,1.9434,1.9418,1.942,1.9414,1.9417,1.9416,1.9394,1.9394,1.9385,1.9392,1.9392,1.939,1.9394,1.9379,1.9377,1.9367,1.9393,1.9367,1.9373,1.9366,1.9365,1.9366,1.9397,1.9398,1.9399,1.9399,0,1.9481,1.9472,1.9472,1.947,1.947,1.9467,1.9462,1.9465,1.9441,1.9443,1.9444,1.9444,1.9442,1.9442,1.9438,1.943,1.9411,1.9408,1.9412,1.9417,1.9423,1.9419,1.9343,1.9406,1.9405,1.9405,1.9404,1.9404,1.9525,1.9532,1.9522,1.9523,1.9518,1.9515,1.9519,1.9508,1.9509,1.9506,1.9494,1.9497,1.9489,1.9481,1.9476,1.9479,1.9467,1.9473,1.9474,1.9476,1.9479,1.9425,1.9478,1.9478,1.9478,1.9478,1.9478,0,1.9579,1.9572,1.9574,1.9568,1.957,1.9553,1.9547,1.9549,1.9553,1.9547,1.9547,1.9549,1.955,1.9536,1.9534,1.9539,1.953,1.954,1.9538,1.9537,1.949,1.9486,1.9547,1.9547,1.9547,1.9547,1.9547,1.9547,1.9608,1.9619,1.9609,1.9618,1.961,1.9614,1.9613,1.961,1.9605,1.9608,1.9609,1.96,1.9591,1.9589,1.9589,1.9585,1.9585,1.9597,1.959,1.9547,1.954,1.9533,1.9529,1.9598,1.9598,1.9636,1.9636,1.9637]}]]